Location: Mohawk View
(42.7837°N, 73.7885°W)
Time: 08:42:23
(UTC+00:00)

Cosmos 1725 Rocket - Pass Details

Date: 17 June 2021
Orbit: 962 x 990 km, 82.9° (Epoch: 27 July)

Event Time Altitude Azimuth Distance (km) Brightness Sun altitude
Rises 03:29:51 0° 347° (NNW) 3,657 8.5 -20.9°
Reaches altitude 10° 03:32:25 10° 343° (NNW) 2,706 7.5 -21.1°
Maximum altitude 03:38:22 52° 269° (W) 1,188 4.5 -21.4°
Enters shadow 03:41:23 28° 208° (SSW) 1,713 4.9 -21.6°
